User: anonymous
Location: Unspecified
(0.0000°N, 0.0000°E)
Time: 16:04:31
(UTC+02:00)
Language:

ARIANE 5 DEB (SYLDA) - Orbit

View from above orbital plane
View from above orbital plane
View from above satellite
View from above satellite

Ground track
Ground track

The orbit data is extracted from the following two-line orbital elements,

1 32770U 08018D   14239.53439250  .00070801 -43911-5  10000-3 0  8304
2 32770 001.4095 239.9101 2894677 070.1242 094.5691 09.84635335 75949
Epoch (UTC): 27 August 2014 12:49:31
Eccentricity: 0.2894677
inclination: 1.4095°
perigee height: 155 km
apogee height: 5478 km
right ascension of ascending node: 239.9101°
argument of perigee: 70.1242°
revolutions per day: 9.84635335
mean anomaly at epoch: 94.5691°
orbit number at epoch: 7594

The dashed part of the orbit path shows where the satellite is in the earth's shadow,  

DLR